Regional Weather Roundup
Issued by NWS Kansas City/Pleasant Hill, MO

Home | Current Version | Previous Version | Text Only | Print | Product List | Glossary On
Versions: 1 2 3 4 5 6 7 8 9 10 11 12 13 14 15 16 17 18 19 20 21 22 23 24 25 26 27
000
ASUS43 KEAX 281810
RWREAX

WEATHER ROUNDUP FOR EASTERN KANSAS AND NORTHWEST MISSOURI
NATIONAL WEATHER SERVICE KANSAS CITY/PLEASANT HILL MO
1200 PM CST TUE FEB 28 2017

KSZ040-057-103>105-MOZ028-029-037-043-281900-
...KANSAS CITY METROPOLITAN AREA...

CITY           SKY/WX    TMP DP  RH WIND       PRES   REMARKS
K.C. INTL      CLOUDY    70  52  52 SW21G31   29.63F
6HR MIN TEMP:  62; 6HR MAX TEMP:  70;

K.C. DOWNTOWN  CLOUDY    75  53  46 SW22G31   29.63F
6HR MIN TEMP:  62; 6HR MAX TEMP:  75;

LEES SUMMIT    MOSUNNY   73  52  47 SW28G36   29.65F
6HR MIN TEMP:  61; 6HR MAX TEMP:  73;

OLATHE - IXD   CLOUDY    71  48  43 S23G29    29.66F
6HR MIN TEMP:  62; 6HR MAX TEMP:  71;

OLATHE - OJC   CLOUDY    69  50  50 SW20G31   29.66S
6HR MIN TEMP:  61; 6HR MAX TEMP:  70;

LAWRENCE       CLOUDY    72  44  36 S21G29    29.62F

$$

MOZ001>008-011>017-020>025-030>033-038>040-044>046-053-054-281900-
...NORTHERN AND CENTRAL MISSOURI...

CITY           SKY/WX    TMP DP  RH WIND       PRES   REMARKS
ST. JOSEPH     CLOUDY    67  56  67 SW17      29.61F
6HR MIN TEMP:  60; 6HR MAX TEMP:  67;

MOSBY          CLOUDY    70  52  52 SW18G26   29.64F
WARRENSBURG    CLOUDY    73  52  46 S26G35    29.68R
WHITEMAN AFB   CLOUDY    73  58  58 SW31G40   29.65F
6HR MIN TEMP:  60; 6HR MAX TEMP:  74;

CLINTON        PTSUNNY   73  57  56 SW23      29.71S
SEDALIA        CLOUDY    75  57  53 SW24G38   29.69F
6HR MIN TEMP:  63; 6HR MAX TEMP:  75;

WARSAW         NOT AVBL
CHILLICOTHE      N/A     69  56  62 SW13G26   29.64F
6HR MIN TEMP:  61; 6HR MAX TEMP:  70;

KIRKSVILLE     CLOUDY    69  57  65 SW18G30   29.64F
6HR MIN TEMP:  58; 6HR MAX TEMP:  69;


$$

MOZ041-047>049-056>058-063>065-088>090-097-281900-
...EASTERN AND SOUTHERN MISSOURI...

CITY           SKY/WX    TMP DP  RH WIND       PRES   REMARKS
ST. LOUIS INTL CLOUDY    72  58  61 S17G25    29.79F
6HR MIN TEMP:  57; 6HR MAX TEMP:  73;

SPIRIT OF STL  CLOUDY    72  59  63 SW14      29.76F
COLUMBIA       CLOUDY    74  60  61 SW31G38   29.71F
JEFFERSON CITY CLOUDY    72  59  63 S15G24    29.72F
ROLLA          LGT RAIN  69  59  70 SW21G28   29.77F
SPRINGFIELD    CLOUDY    73  58  59 SW35G41   29.79F
BRANSON        PTSUNNY   75  59  57 S17G25    29.85F
JOPLIN         MOSUNNY   75  61  61 S31G41    29.76S
WEST PLAINS    PTSUNNY   70  60  70 SW17G25   29.88F

$$

IAZ060-094-KSZ022-034>040-054-083-096-NEZ052-066-093-281900-
...KANSAS...SOUTHEAST NEBRASKA AND IOWA...

CITY           SKY/WX    TMP DP  RH WIND       PRES   REMARKS
TOPEKA         PTSUNNY   68  49  50 SW14      29.63S
6HR MIN TEMP:  62; 6HR MAX TEMP:  68;

MANHATTAN      CLOUDY    54  38  54 W10       29.68R
EMPORIA        CLOUDY    69  40  34 SW21      29.66F
CHANUTE        CLOUDY    73  56  54 S24G33    29.70F
WICHITA        CLOUDY    63  47  55 SW12      29.69F
OMAHA          CLOUDY    43  37  79 N7        29.64S
LINCOLN        CLOUDY    46  37  71 NW13      29.67S
FALLS CITY     CLOUDY    59  46  62 W10       29.61F
LAMONI         PTSUNNY   67  54  63 SW21G26   29.60F
DES MOINES     CLOUDY    64  43  46 W10       29.59F

$$





USA.gov is the U.S. government's official web portal to all federal, state and local government web resources and services.